Starlink 32229

operational
NORAD ID: 60436 Int'l Des: 2024-144 Owner: SPXS Country: US Constellation: starlink
LEOCIRCULAR

关于 Starlink 32229

正在加载描述...

实时位置

正在加载3D地球...

即将过境

高度历史

Altitude vs Time

uPlot chart will show altitude changes over time

两行轨道根数

1 60436U 24144M 25258.14450316 .00000359 00000-0 24255-4 0 9999
2 60436 53.1622 312.4351 0000990 80.1058 280.0055 15.30193370 62436
Epoch: Sep 15, 2025 • Age: 9 hours

当前状态

高度 494.2 km
速度 7.62 km/s
星下点 -52.82°S, 49.09°E
发射日期 Aug 12, 2024
运行时间 1 years
类型 internet

技术详情

分类 Payload
质量 730.00 kg
干质量 700.00 kg
总质量 730.00 kg
长度 0.30 m
直径 4.10 m
跨度 29.00 m
形状 Box + pan
制造商 SPXS
平台类型 Starlink V2M
阶段状态 In Orbit
所有者/国家 SPXS/US

大型星座

Loading constellations...